Blair, NE

2:30 PM CDT on May 23, 2018 (GMT -0500)
Blair Municipal

Weather History for KBTA - February, 2013

Change the Weather History Date:

Wednesday, February 6, 2013

  Actual Average (KOMA) Record (KOMA)
Temperature  
Mean Temperature 40 °F -  
Max Temperature 49 °F 30 °F 62 °F (2009)
Min Temperature 32 °F 11 °F -14 °F (1982)
Degree Days  
Heating Degree Days 24    
Moisture  
Dew Point 32 °F    
Average Humidity 71    
Maximum Humidity 83    
Minimum Humidity 56    
Precipitation  
Precipitation 0.00 in - - ()
Sea Level Pressure  
Sea Level Pressure 29.92 in    
Wind  
Wind Speed 10 mph (SE)    
Max Wind Speed 23 mph    
Max Gust Speed 31 mph    
Visibility 10 miles    
Events      
Averages and records for this station are not official NWS values.
T = Trace of Precipitation, MM = Missing Value Source: NWS Daily Summary

Daily Weather History Graph

Daily Weather History Graph

Search for Another Location

Airport or City:

Astronomy

Feb. 06, 2013 Rise Set
Actual Time 7:30 AM CST 5:47 PM CST
Civil Twilight 7:01 AM CST 6:16 PM CST
Nautical Twilight 6:28 AM CST 6:49 PM CST
Astronomical Twilight 5:56 AM CST 7:21 PM CST
Moon 4:16 AM CST (2/6) 2:05 PM CST (2/6)
Length of Visible Light 11h 14m
Length of Day
10h 17m
Waning Crescent, 17% of the Moon is Illuminated
Feb 6
Waning Crescent
Feb 10
New
Feb 17
First Quarter
Feb 25
Full
Mar 4
Last Quarter

Hourly Weather History & Observations

Time (CST) Temp. Windchill Dew Point Humidity Pressure Visibility Wind Dir Wind Speed Gust Speed Precip Events Conditions
12:15 AM 33.1 °F 24.9 °F 28.2 °F 82% 30.04 in 10.0 mi East 10.4 mph - N/A   Clear
12:35 AM 32.9 °F 29.8 °F 28.2 °F 83% 30.06 in 10.0 mi SE 3.5 mph - N/A   Clear
12:55 AM 32.7 °F 29.6 °F 28.0 °F 83% 30.06 in 10.0 mi SSE 3.5 mph - N/A   Clear
1:15 AM 32.9 °F 27.5 °F 27.9 °F 82% 30.05 in 10.0 mi SE 5.8 mph - N/A   Clear
1:35 AM 32.5 °F 26.2 °F 27.7 °F 82% 30.04 in 10.0 mi ESE 6.9 mph - N/A   Clear
1:55 AM 32.9 °F 25.9 °F 27.5 °F 81% 30.04 in 10.0 mi ESE 8.1 mph - N/A   Clear
2:35 AM 32.9 °F 25.3 °F 28.2 °F 83% 30.03 in 10.0 mi East 9.2 mph - N/A   Clear
2:55 AM 32.9 °F 26.7 °F 28.2 °F 83% 30.02 in 10.0 mi ESE 6.9 mph - N/A   Scattered Clouds
3:15 AM 33.3 °F 26.4 °F 28.2 °F 82% 30.01 in 10.0 mi ESE 8.1 mph - N/A   Mostly Cloudy
3:35 AM 33.3 °F 27.1 °F 28.0 °F 81% 30.01 in 10.0 mi SE 6.9 mph - N/A   Mostly Cloudy
3:55 AM 33.1 °F 26.1 °F 28.2 °F 82% 30.00 in 10.0 mi SE 8.1 mph - N/A   Mostly Cloudy
4:15 AM 33.3 °F 27.1 °F 28.0 °F 81% 30.00 in 10.0 mi SE 6.9 mph - N/A   Overcast
4:35 AM 33.4 °F 26.6 °F 27.9 °F 80% 30.00 in 10.0 mi SSE 8.1 mph - N/A   Overcast
4:55 AM 33.4 °F 27.3 °F 27.5 °F 79% 30.00 in 10.0 mi SSE 6.9 mph - N/A   Scattered Clouds
5:15 AM 33.6 °F 26.2 °F 27.5 °F 78% 29.99 in 10.0 mi SE 9.2 mph - N/A   Clear
5:35 AM 32.9 °F 25.9 °F 27.3 °F 80% 29.98 in 10.0 mi SE 8.1 mph - N/A   Clear
5:55 AM 34.2 °F 25.2 °F 27.7 °F 77% 29.98 in 10.0 mi SSE 12.7 mph - N/A   Scattered Clouds
6:15 AM 33.8 °F 24.8 °F 27.9 °F 79% 29.98 in 10.0 mi SSE 12.7 mph - N/A   Scattered Clouds
6:35 AM 34.0 °F 25.5 °F 28.0 °F 79% 29.98 in 10.0 mi SSE 11.5 mph - N/A   Mostly Cloudy
6:55 AM 33.6 °F 24.6 °F 28.2 °F 81% 29.97 in 10.0 mi SSE 12.7 mph - N/A   Mostly Cloudy
7:15 AM 33.8 °F 23.9 °F 28.2 °F 80% 29.96 in 10.0 mi SSE 15.0 mph - N/A   Scattered Clouds
7:35 AM 34.2 °F 24.8 °F 28.4 °F 79% 29.96 in 10.0 mi SSE 13.8 mph 20.7 mph N/A   Clear
7:55 AM 34.7 °F 25.9 °F 28.8 °F 79% 29.96 in 10.0 mi SSE 12.7 mph - N/A   Clear
8:15 AM 34.7 °F 26.4 °F 28.6 °F 78% 29.96 in 10.0 mi SSE 11.5 mph - N/A   Clear
8:35 AM 35.6 °F 26.2 °F 29.1 °F 77% 29.96 in 10.0 mi SSE 15.0 mph - N/A   Clear
8:55 AM 36.5 °F 27.0 °F 29.3 °F 75% 29.96 in 10.0 mi SSE 16.1 mph 21.9 mph N/A   Clear
9:15 AM 37.9 °F 28.2 °F 29.7 °F 72% 29.96 in 10.0 mi SSE 18.4 mph - N/A   Scattered Clouds
9:35 AM 39.6 °F 30.6 °F 30.0 °F 69% 29.96 in 10.0 mi South 17.3 mph - N/A   Scattered Clouds
9:55 AM 41.4 °F 31.9 °F 29.8 °F 64% 29.95 in 10.0 mi SSE 21.9 mph 25.3 mph N/A   Clear
10:35 AM 43.3 °F 34.2 °F 30.0 °F 59% 29.94 in 10.0 mi South 23.0 mph 27.6 mph N/A   Clear
10:55 AM 44.4 °F 36.1 °F 31.3 °F 60% 29.94 in 10.0 mi South 20.7 mph 26.5 mph N/A   Clear
11:15 AM 44.2 °F 35.9 °F 31.5 °F 61% 29.94 in 10.0 mi South 20.7 mph 31.1 mph N/A   Clear
11:35 AM 43.9 °F 35.2 °F 31.3 °F 61% 29.94 in 10.0 mi South 21.9 mph - N/A   Clear
11:55 AM 44.6 °F 36.9 °F 32.0 °F 61% 29.94 in 10.0 mi South 18.4 mph 26.5 mph N/A   Clear
12:15 PM 45.9 °F 38.3 °F 32.7 °F 60% 29.92 in 10.0 mi South 19.6 mph - N/A   Clear
12:35 PM 47.3 °F - 33.6 °F 59% 29.91 in 10.0 mi SSE 21.9 mph 26.5 mph N/A   Clear
12:55 PM 48.2 °F - 33.1 °F 56% 29.91 in 10.0 mi South 16.1 mph 25.3 mph N/A   Scattered Clouds
1:15 PM 48.6 °F - 34.0 °F 57% 29.89 in 10.0 mi South 19.6 mph - N/A   Mostly Cloudy
1:35 PM 49.6 °F - 34.3 °F 56% 29.88 in 10.0 mi South 18.4 mph 24.2 mph N/A   Scattered Clouds
1:55 PM 49.1 °F - 34.3 °F 57% 29.87 in 10.0 mi South 18.4 mph - N/A   Clear
2:15 PM 49.3 °F - 34.5 °F 57% 29.86 in 10.0 mi South 16.1 mph - N/A   Clear
2:35 PM 48.7 °F - 34.3 °F 58% 29.86 in 10.0 mi SSE 11.5 mph - N/A   Clear
2:55 PM 48.7 °F - 34.7 °F 58% 29.85 in 10.0 mi SSE 9.2 mph - N/A   Clear
3:15 PM 49.3 °F - 35.1 °F 58% 29.85 in 10.0 mi SE 6.9 mph - N/A   Clear
3:35 PM 49.3 °F - 35.6 °F 59% 29.85 in 10.0 mi SSE 6.9 mph - N/A   Clear
3:55 PM 49.1 °F - 35.6 °F 60% 29.84 in 10.0 mi SE 8.1 mph - N/A   Clear
4:15 PM 49.1 °F - 35.6 °F 60% 29.84 in 10.0 mi ESE 4.6 mph - N/A   Clear
4:55 PM 48.2 °F - 36.0 °F 63% 29.83 in 10.0 mi East 3.5 mph - N/A   Clear
5:15 PM 47.3 °F - 35.8 °F 64% 29.83 in 10.0 mi ESE 6.9 mph - N/A   Clear
5:35 PM 46.9 °F - 35.8 °F 65% 29.83 in 10.0 mi ESE 6.9 mph - N/A   Clear
5:55 PM 46.9 °F - 36.0 °F 66% 29.84 in 10.0 mi ESE 5.8 mph - N/A   Clear
6:15 PM 46.4 °F 42.9 °F 35.6 °F 66% 29.84 in 10.0 mi ESE 6.9 mph - N/A   Clear
6:35 PM 45.3 °F 42.3 °F 35.6 °F 69% 29.84 in 10.0 mi ENE 5.8 mph - N/A   Clear
6:55 PM 46.0 °F 43.9 °F 35.6 °F 67% 29.85 in 10.0 mi East 4.6 mph - N/A   Clear
7:15 PM 43.3 °F 38.6 °F 34.9 °F 72% 29.86 in 10.0 mi NE 8.1 mph - N/A   Clear
7:35 PM 44.1 °F 40.1 °F 34.9 °F 70% 29.86 in 10.0 mi NNE 6.9 mph - N/A   Clear
7:55 PM 43.7 °F 39.7 °F 35.1 °F 72% 29.86 in 10.0 mi ENE 6.9 mph - N/A   Mostly Cloudy
8:15 PM 44.1 °F 40.1 °F 35.2 °F 71% 29.86 in 10.0 mi East 6.9 mph - N/A   Overcast
8:35 PM 43.7 °F 40.3 °F 35.1 °F 72% 29.86 in 10.0 mi East 5.8 mph - N/A   Overcast
8:55 PM 43.5 °F 40.1 °F 35.1 °F 72% 29.86 in 10.0 mi East 5.8 mph - N/A   Overcast
9:15 PM 44.1 °F 41.5 °F 35.6 °F 72% 29.86 in 10.0 mi ENE 4.6 mph - N/A   Overcast
9:35 PM 43.9 °F 42.3 °F 35.6 °F 73% 29.87 in 10.0 mi NNW 3.5 mph - N/A   Overcast
9:55 PM 43.7 °F 42.1 °F 35.6 °F 73% 29.87 in 10.0 mi NNE 3.5 mph - N/A   Overcast
10:15 PM 43.9 °F 41.3 °F 35.4 °F 72% 29.86 in 10.0 mi East 4.6 mph - N/A   Overcast
10:35 PM 41.9 °F 36.9 °F 35.1 °F 77% 29.86 in 10.0 mi NNE 8.1 mph - N/A   Overcast
10:55 PM 40.5 °F 35.8 °F 34.2 °F 78% 29.86 in 10.0 mi North 6.9 mph - N/A   Scattered Clouds
11:15 PM 39.6 °F 34.0 °F 34.5 °F 82% 29.87 in 10.0 mi North 8.1 mph - N/A   Mostly Cloudy
11:35 PM 41.2 °F 36.0 °F 35.1 °F 79% 29.87 in 10.0 mi NNE 8.1 mph - N/A   Overcast
11:55 PM 41.5 °F 36.4 °F 34.7 °F 77% 29.87 in 10.0 mi NNE 8.1 mph - N/A   Mostly Cloudy